STARLINK-31551, 59191

Orbit data source: Space-Track

STARLINK-31551, 59191 is a payload satellite owned by SpaceX/Seattle (US) in LEO that was launched on Sun, 10 Mar 2024 UTC via an FALCON 9 launch vehicle from the Air Force Eastern Test Range (AFETR). Payload-class satellites include a variety of spacecraft equipped with specific instruments for various scientific and technological missions. These include communications satellites like Starlink; space stations such as the ISS; scientific satellites like the Hubble; Earth observation satellites from companies like Planet Labs, Umbra, and HawkEye 360; GPS; miniature CubeSats for education and research; and military/defense satellites.

Loading next visibility...
Identifier
59191, 2024-045P
Orbit
LEO
Country
Flag of USUS
Related business
Manufacturer
SpaceX/Seattle
Mission
Operational Commercial Communications
Bus & Motor
STARLINK V2M, Unknown motor
Mass
730 kg wet, ~700 kg dry
Launch date (UTC)
2024-03-10 (2 years ago)
Launch vehicle
FALCON 9
Launch site
Air Force Eastern Test Range (AFETR)
Object type
Payload
Rocket body
Debris
Shape & HBR
Box + 2 Pan, 17.7 m
Radar Cross Section
33.884 m², Large (>1 m²)

Expand to show TLE details & history
Last TLE update: 2 days ago

TLE from 2 days ago
0 STARLINK-31551
1 59191U 24045P   26171.46546132  .00000588  00000-0  30909-4 0  9994
2 59191  43.0011 228.3400 0001287 272.4077  87.6627 15.27574395128928
Epoch: 2026-06-20T11:10Z
TLE epoch observation values (Epoch: 2026-06-20T11:10:15.858Z)
Latitude
-0.00002°
Longitude
152.09421°
Altitude
482.806 km
Speed
7.626 km/s
True Right ascension
15h 13m 21s
True Declination
0° 00' 00"
Sunlit
Object was in full shadow at epoch
Visualization orbit readout
Latitude
Unknown
Longitude
Unknown
Altitude
Unknown
Speed
Unknown
Apparent Right ascension
Unknown
Apparent Declination
Unknown
Sunlit
N/A
Visualization observer readout
Local Sidereal Time
23:07:38
Azimuth
Unknown
Elevation
Unknown
Doppler factor
Unknown
Orbital elements
Apogee altitude
485.894 km
Perigee altitude
484.128 km
Semi-major axis
6,863.148 km
Eccentricity
0.00013
Inclination
43.0011°
RAAN
228.34°
Arg. of periapsis
272.4077°
True anomaly
87.67744°
Mean anomaly
87.6627°
Eccentric anomaly
87.67007°
Mean motion
3.81732 °/min
Orbital period
94.31 mins
BSTAR
0.000030909
Loading maneuver chart data...
Computing Atmospheric mass density...
Loading historical data...
Loading historical data...
Loading historical data...
Loading historical data...
Loading historical data...
Loading historical data...
Loading historical data...

Documentation

Showing up to 5 results
|